Weather History for Pellston, MI

Change the Weather History Date:

Tuesday, December 3, 2013

  Actual Average Record
Temperature  
Mean Temperature 18 °F -  
Max Temperature 30 °F 33 °F 64 °F (1951)
Min Temperature 7 °F 19 °F -9 °F (2002)
Degree Days  
Heating Degree Days 46    
Moisture  
Dew Point 20 °F    
Average Humidity 86    
Maximum Humidity 93    
Minimum Humidity 78    
Precipitation  
Precipitation 0.12 in - - ()
Sea Level Pressure  
Sea Level Pressure 29.97 in    
Wind  
Wind Speed 4 mph (East)    
Max Wind Speed 10 mph    
Max Gust Speed -    
Visibility 5 miles    
Events Snow    
Averages and records for this station are not official NWS values.
T = Trace of Precipitation, MM = Missing Value Source: NWS Daily Summary

Daily Weather History Graph

Daily Weather History Graph

Search for Another Location

Airport:

Trip Planner

Search our weather history database for the weather conditions in past years. The results will help you decide how hot, cold, wet, or windy it might be!

Date:

Astronomy

Dec. 03, 2013 Rise Set
Actual Time 8:01 AM EST 4:56 PM EST
Civil Twilight 7:27 AM EST 5:30 PM EST
Nautical Twilight 6:50 AM EST 6:07 PM EST
Astronomical Twilight 6:15 AM EST 6:43 PM EST
Moon 8:28 AM EST (12/3) 6:00 PM EST (12/3)
Length of Visible Light 10h 02m
Length of Day
8h 54m
New Moon, 1% of the Moon is Illuminated
Dec 3
New Moon
Dec 9
First Quarter
Dec 17
Full
Dec 25
Last Quarter
Jan 1
New

Hourly Weather History & Observations

Time (EST) Temp. Windchill Dew Point Humidity Pressure Visibility Wind Dir Wind Speed Gust Speed Precip Events Conditions
12:31 AM 10.4 °F 4.0 °F 8.6 °F 92% 29.96 in 10.0 mi North 3.5 mph - N/A   Mostly Cloudy
12:54 AM 10.0 °F - 6.1 °F 84% 29.99 in 10.0 mi Calm Calm - N/A   Mostly Cloudy
1:12 AM 10.4 °F - 6.8 °F 85% 29.95 in 10.0 mi Calm Calm - N/A   Scattered Clouds
1:54 AM 10.0 °F - 7.0 °F 87% 29.98 in 10.0 mi Calm Calm - N/A   Clear
2:54 AM 10.0 °F - 6.1 °F 84% 29.99 in 10.0 mi Calm Calm - N/A   Clear
3:54 AM 8.1 °F - 3.0 °F 80% 29.98 in 10.0 mi Calm Calm - N/A   Clear
4:54 AM 7.0 °F - 3.0 °F 84% 29.98 in 10.0 mi Calm Calm - N/A   Clear
5:54 AM 7.0 °F - 3.0 °F 84% 29.98 in 10.0 mi Calm Calm - N/A   Clear
6:54 AM 8.1 °F - 3.9 °F 83% 30.00 in 10.0 mi Calm Calm - N/A   Clear
7:54 AM 10.9 °F - 7.0 °F 84% 30.00 in 10.0 mi Calm Calm - N/A   Mostly Cloudy
8:54 AM 16.0 °F - 12.0 °F 84% 30.00 in 10.0 mi Calm Calm - N/A   Overcast
9:54 AM 19.0 °F - 16.0 °F 88% 30.01 in 10.0 mi Calm Calm - N/A   Overcast
10:54 AM 24.1 °F - 19.9 °F 84% 30.03 in 5.0 mi Calm Calm - 0.00 in Snow Light Snow
11:13 AM 24.8 °F 20.5 °F 21.2 °F 86% 29.98 in 1.8 mi East 3.5 mph - 0.00 in Snow Light Snow
11:31 AM 26.6 °F 18.2 °F 21.2 °F 80% 29.98 in 0.8 mi East 8.1 mph - 0.00 in Snow Light Snow
11:50 AM 26.6 °F 21.2 °F 23.0 °F 86% 29.97 in 1.8 mi East 4.6 mph - 0.01 in Snow Light Snow
11:54 AM 26.1 °F 20.5 °F 24.1 °F 92% 30.01 in 2.5 mi East 4.6 mph - 0.01 in Snow Light Snow
12:06 PM 26.6 °F 21.2 °F 23.0 °F 86% 29.97 in 1.0 mi ESE 4.6 mph - 0.00 in Snow Light Snow
12:41 PM 26.6 °F 19.1 °F 23.0 °F 86% 29.96 in 2.0 mi ESE 6.9 mph - 0.01 in Snow Light Snow
12:54 PM 27.0 °F 21.6 °F 21.9 °F 81% 30.01 in 2.5 mi ESE 4.6 mph - 0.01 in Snow Light Snow
1:01 PM 26.6 °F 19.1 °F 21.2 °F 80% 29.96 in 4.0 mi SE 6.9 mph - 0.00 in Snow Light Snow
1:23 PM 26.6 °F 19.1 °F 21.2 °F 80% 29.96 in 2.0 mi ESE 6.9 mph - 0.00 in Snow Light Snow
1:29 PM 26.6 °F 19.1 °F 21.2 °F 80% 29.96 in 3.0 mi ESE 6.9 mph - 0.00 in Snow Light Snow
1:54 PM 27.0 °F 19.5 °F 23.0 °F 85% 29.99 in 7.0 mi East 6.9 mph - 0.00 in Snow Light Snow
2:54 PM 28.0 °F 22.8 °F 23.0 °F 81% 29.98 in 10.0 mi East 4.6 mph - 0.00 in   Overcast
3:54 PM 28.0 °F 18.6 °F 21.9 °F 78% 29.98 in 10.0 mi ENE 10.4 mph - N/A   Overcast
4:54 PM 28.0 °F 22.8 °F 21.9 °F 78% 29.98 in 7.0 mi East 4.6 mph - N/A   Overcast
5:54 PM 28.0 °F 20.8 °F 23.0 °F 81% 29.98 in 10.0 mi East 6.9 mph - N/A   Overcast
6:16 PM 28.4 °F 21.2 °F 24.8 °F 86% 29.93 in 7.0 mi East 6.9 mph - N/A   Overcast
6:54 PM 28.9 °F 21.1 °F 26.1 °F 89% 29.98 in 4.0 mi East 8.1 mph - 0.00 in Snow Light Snow
7:22 PM 28.4 °F 20.4 °F 26.6 °F 93% 29.94 in 1.8 mi East 8.1 mph - 0.00 in Snow Light Snow
7:41 PM 28.4 °F 20.4 °F 26.6 °F 93% 29.94 in 1.0 mi East 8.1 mph - 0.02 in Snow Light Snow
7:54 PM 28.9 °F 20.4 °F 27.0 °F 92% 29.98 in 1.2 mi East 9.2 mph - 0.02 in Snow Light Snow
8:29 PM 28.4 °F 21.2 °F 26.6 °F 93% 29.93 in 0.8 mi East 6.9 mph - 0.03 in Snow Light Snow
8:49 PM 28.4 °F 21.2 °F 26.6 °F 93% 29.93 in 1.0 mi East 6.9 mph - 0.05 in Snow Light Snow
8:54 PM 28.9 °F 21.9 °F 27.0 °F 92% 29.97 in 1.0 mi East 6.9 mph - 0.05 in Snow Light Snow
9:42 PM 30.2 °F 22.6 °F 28.4 °F 93% 29.93 in 2.0 mi East 8.1 mph - 0.01 in Snow Light Snow
9:54 PM 30.0 °F 23.2 °F 28.0 °F 92% 29.96 in 2.5 mi East 6.9 mph - 0.02 in Snow Light Snow
10:05 PM 30.2 °F 23.4 °F 28.4 °F 93% 29.93 in 2.5 mi East 6.9 mph - 0.00 in Snow Light Snow
10:41 PM 30.2 °F 23.4 °F 28.4 °F 93% 29.93 in 3.0 mi East 6.9 mph - 0.00 in Snow Light Snow
10:54 PM 30.9 °F 24.3 °F 28.0 °F 89% 29.96 in 4.0 mi East 6.9 mph - 0.00 in Snow Light Snow
11:31 PM 30.2 °F 21.3 °F 28.4 °F 93% 29.92 in 2.5 mi East 10.4 mph - 0.00 in Snow Light Snow
11:54 PM 30.9 °F 22.8 °F 28.9 °F 92% 29.96 in 1.8 mi East 9.2 mph - 0.01 in Snow Light Snow